COSMOS 970 DEB, 10884

Orbit data source: Space-Track

COSMOS 970 DEB, 10884 is space debris in LEO originally from a launch on Wed, 21 Dec 1977 UTC launched from the Tyuratam Missile And Space Complex (TTMTR). Debris objects in space refer to the collection of defunct objects orbiting the Earth. Examples of debris include non-operational satellites, rocket bodies, and fragments generated from explosions, collisions, or faulty payload assembly.

Loading next visibility...
Identifier
10884, 1977-121AF
Orbit
LEO
Country
Flag of CISCIS
Related business
Manufacturer
Unknown
Mission
Spacecraft
Bus & Motor
Unknown
Mass
Unknown
Launch date (UTC)
1977-12-21 (48 years ago)
Launch vehicle
Unknown
Launch site
Tyuratam Missile And Space Complex (TTMTR)
Object type
Payload
Rocket body
Debris
Shape & HBR
Unknown shape, 0.2 m
Radar Cross Section
Medium (>0.1 m² and <1 m²)

Expand to show TLE details & history
Last TLE update: 23 hours ago

TLE from 23 hours ago
0 COSMOS 970 DEB
1 10884U 77121AF  26170.93915408  .00000066  00000-0  12253-3 0  9992
2 10884  66.3884   1.4416 0203210 276.3932  81.4032 13.78030483432390
Epoch: 2026-06-19T22:32Z
TLE epoch observation values (Epoch: 2026-06-19T22:32:22.912Z)
Latitude
-0.00007°
Longitude
115.18516°
Altitude
953.568 km
Speed
7.385 km/s
True Right ascension
00h 05m 45s
True Declination
0° 00' 00"
Sunlit
Object was in daylight at epoch
Visualization orbit readout
Latitude
Unknown
Longitude
Unknown
Altitude
Unknown
Speed
Unknown
Apparent Right ascension
Unknown
Apparent Declination
Unknown
Sunlit
N/A
Visualization observer readout
Local Sidereal Time
08:41:41
Azimuth
Unknown
Elevation
Unknown
Doppler factor
Unknown
Orbital elements
Apogee altitude
1,118.638 km
Perigee altitude
820.022 km
Semi-major axis
7,347.467 km
Eccentricity
0.02032
Inclination
66.3884°
RAAN
1.4416°
Arg. of periapsis
276.3932°
True anomaly
83.7138°
Mean anomaly
81.4032°
Eccentric anomaly
82.5577°
Mean motion
3.44617 °/min
Orbital period
104.46 mins
BSTAR
0.00012253
Loading maneuver chart data...
Computing Atmospheric mass density...
Loading historical data...
Loading historical data...
Loading historical data...
Loading historical data...
Loading historical data...
Loading historical data...
Loading historical data...

Documentation

Showing up to 5 results
|